Regional Weather Roundup
Issued by NWS

Home | Current Version | Previous Version | Graphics & Text | Print | Product List | Glossary On
Versions: 1 2 3 4 5 6 7 8 9 10 11 12 13 14 15 16 17 18 19 20 21 22 23 24 25 26 27 28 29 30 31 32 33 34 35 36 37 38 39 40 41 42 43 44 45 46 47 48 49 50
000
ASUS45 KBOU 261810
RWRCO

WEATHER ROUNDUP FOR COLORADO
NATIONAL WEATHER SERVICE DENVER/BOULDER CO
1200 PM MDT THU APR 26 2018

NOTE: "FAIR" INDICATES FEW OR NO CLOUDS BELOW 12000 FEET WITH NO
SIGNIFICANT WEATHER AND/OR OBSTRUCTIONS TO VISIBILITY.

COZ001>005-013-030-031-261900-
...NORTHWEST COLORADO...

CITY           SKY/WX    TMP DP  RH WIND       PRES   REMARKS
CRAIG          FAIR      56  26  31 VRB5      30.29F
HAYDEN         FAIR      52  24  33 W6        30.31S
MEEKER         FAIR      57  25  29 NE10G20   30.29S
RANGELY        FAIR      60  28  29 E16G23    30.27S
RABBIT EARS PA FAIR      37  19  48 NW7G18    30.37R
STEAMBOAT SPGS FAIR      51  17  26 W10G20    30.29R
WALDEN         FAIR      45  16  31 MISG      30.34S
$$

COZ006>008-011-261900-
...WEST CENTRAL VALLEYS...

CITY           SKY/WX    TMP DP  RH WIND       PRES   REMARKS
GRAND JUNCTION FAIR      67  22  18 N10G20    30.20F
MONTROSE       FAIR      62  14  15 NW9       30.23F
EAGLE          FAIR      57  16  20 VRB3      30.27S
RIFLE          FAIR      63  22  20 NW16      30.23F
DELTA          FAIR      67  15  13 S5        30.20F
NUCLA          FAIR      66  10  11 N12G17    30.24R
$$

COZ017>023-064>068-261900-
...SOUTHWEST COLORADO...

CITY           SKY/WX    TMP DP  RH WIND       PRES   REMARKS
DURANGO        FAIR      65   9  11 VRB3      30.13F
CORTEZ         FAIR      70   9   9 N14G26    30.15F
PAGOSA SPRINGS FAIR      64   1   8 N7G17     30.19F
TELLURIDE      FAIR      53   6  15 NE3       30.32R
WOLF CREEK PAS FAIR      37   5  25 NW14G24   30.41S
$$

COZ009-010-012-014-032>034-037-058>063-261900-
...CENTRAL COLORADO...

CITY           SKY/WX    TMP DP  RH WIND       PRES   REMARKS
ASPEN          FAIR      55  17  22 NW9G17    30.27S
BUENA VISTA    FAIR      55   9  16 NW18G25   30.24S
COPPER MTN     NOT AVBL
BERTHOUD PASS  FAIR      23  14  68 NW12G23   30.38R WCI  12
COTTONWOOD PAS FAIR      54  10  17 CALM      30.30S
GUNNISON       FAIR      56  11  16 N10       30.24F
GRANBY         FAIR      48  16  28 NW9       30.31S
KREMMLING      FAIR      55  18  22 N10       30.30S
LEADVILLE      FAIR      42  14  32 NW9G22    30.30S
MONARCH PASS   FAIR      36  10  35 NE7       30.48R
SALIDA         FAIR      58  15  18 SE6       30.30S
SUNLIGHT       FAIR      34  14  44 NW6       30.42S WCI  29
WILKERSON PASS FOG       28  27  93 E7        30.37S VSB 1/4 WCI  21
$$

COZ069>075-261900-
...SAN LUIS VALLEY/SANGRE DE CRISTO MOUNTAINS...

CITY           SKY/WX    TMP DP  RH WIND       PRES   REMARKS
ALAMOSA        FAIR      59   8  13 N15G31    30.20R
DEL NORTE      FAIR      61   6  11 N15G23    30.22R
LA VETA PASS   FAIR      41  27  56 N16G29    30.43S
SAGUACHE       NOT AVBL
$$

COZ035-036-038>040-261900-
...NORTHERN COLORADO FRONT RANGE...

CITY           SKY/WX    TMP DP  RH WIND       PRES   REMARKS
DENVER INTL AP PTSUNNY   53  26  35 N20G29    30.29S
AURORA         NOT AVBL
FRONT RANGE AP NOT AVBL
ERIE MUNI ARPT CLOUDY    54  23  29 NE12G22   30.34S
BOULDER MUN AP CLOUDY    54  28  37 N10G17    30.29S
CENTENNIAL     CLOUDY    46  29  51 N9        30.31S
BROOMFIELD     CLOUDY    50  27  40 N12G17    30.31S
FORT COLLINS   PTSUNNY   56  25  30 N15G23    30.30S
LONGMONT       CLOUDY    57  26  30 NE16G22   30.31R
$$

COZ041-046-047-076>085-087-088-261900-
...PIKES PEAK/PALMER DIVIDE AND SOUTHERN FOOTHILLS...

CITY           SKY/WX    TMP DP  RH WIND       PRES   REMARKS
COLO. SPRINGS  FAIR      49  29  46 N28G38    30.30R
A. F. ACADEMY  LGT RAIN  43  32  63 NW17G28   30.31S
SCHRIEVER AFB  NOT AVBL
CHEYENNE MTN   PTSUNNY   43  28  55 N17G24    30.25
ELLICOTT         N/A    N/A N/A N/A N33G46    30.25R
FALCON         PTSUNNY   45  31  57 N23G32    30.31R
FORT CARSON    FAIR      51  29  43 N29G39    30.24F
LIMON          PTSUNNY   53  27  36 N23G38    30.26R
MONUMENT HILL  CLOUDY    37  34  87 N10       30.34R
CANON CITY     FAIR      61  32  33 SE14      30.20R
WALSENBURG     NOT AVBL
TRINIDAD       PTSUNNY   55  27  34 NE18G32   30.25S
$$

COZ042>045-048>051-090-091-261900-
...NORTHEAST COLORADO...

CITY           SKY/WX    TMP DP  RH WIND       PRES   REMARKS
GREELEY ARPT   PTSUNNY   54  25  32 N20G29    30.29S
AKRON          PTSUNNY   56  30  37 N26G37    30.26R
BURLINGTON     NOT AVBL
WRAY           FAIR      61  30  31 N26G39    30.20R
YUMA           FAIR      55  25  30 N22G37    30.22R
STERLING       NOT AVBL
HOLYOKE        FAIR      61  32  33 N30G38    30.21S
FORT MORGAN    CLOUDY    54  22  29 N14G36    30.28S
$$

COZ086-089-092>099-261900-
...SOUTHEAST COLORADO...

CITY           SKY/WX    TMP DP  RH WIND       PRES   REMARKS
PUEBLO         FAIR      59  30  33 N36G52    30.22R
LA JUNTA       PTSUNNY   64  29  26 N24G37    30.20F
LAMAR          FAIR      64  29  26 N35G46    30.13F
SPRINGFIELD      N/A     61  29  29 N39G58    30.12R
$$



USA.gov is the U.S. government's official web portal to all federal, state and local government web resources and services.